Flag for U.S.A. Weather past 2 weeks in Costa Mesa, California, U.S.A.

Now
82 °F

Passing clouds.


Feels Like: 83 °F
Forecast: 67 / 85 °F
Wind: No wind

Location: John Wayne Airport-Orange County Airport

Current Time: Jul 24, 2014 at 11:07:35 AM

Latest Report: Jul 24, 2014 at 9:53 AM


Visibility: 10 mi

Pressure: 29.84 "Hg

Humidity: 49%

Dew point: 61 °F

Location of Costa MesaLocation

Historic Weather in Costa Mesa — Graph

°F

Costa Mesa temperature yesterday

Maximum temperature yesterday: 87 °F (at 2:53 PM)
Minimum temperature yesterday: 68 °F (at 3:53 AM)
Average temperature yesterday: 77 °F

Past Weeks' High & Low Weather Summary

 TemperatureHumidityPressure
High87 °F (Jul 23, 2:53 PM)82% (Jul 12, 5:53 AM)30.06 "Hg (Jul 12, 5:53 AM)
Low68 °F (Jul 12, 4:53 AM)35% (Jul 23, 2:53 PM)29.84 "Hg (Jul 24, 9:53 AM)
Average73 °F65%29.97 "Hg
* Reported Jul 9 9:53 AM — Jul 24 9:53 AM, Costa Mesa, Weather by CustomWeather, © 2014

Note: Actual official high and low records may vary slightly from our data, if they occured in-between our weather recording intervals... More about our weather records

Advertising

Costa Mesa weather history for previous 24 hours

 ConditionsComfort  
Time TempWeatherWind HumidityBarometerVisibility
9:53 AM
Jul 24
82 °FPassing clouds.No wind49%29.84 "Hg10 mi
8:53 AM77 °FScattered clouds.No wind62%29.86 "Hg10 mi
7:53 AM72 °FScattered clouds.No wind73%29.86 "Hg10 mi
6:53 AM70 °FPassing clouds.No wind81%29.86 "Hg9 mi
5:53 AM69 °FPassing clouds.No wind81%29.85 "Hg10 mi
4:53 AM70 °FClear.3 mph79%29.84 "Hg10 mi
3:53 AM71 °FClear.No wind76%29.84 "Hg10 mi
2:53 AM70 °FClear.No wind81%29.85 "Hg10 mi
1:53 AM71 °FClear.3 mph78%29.87 "Hg10 mi
12:53 AM72 °FClear.5 mph73%29.89 "Hg10 mi
11:53 PM
Jul 23
73 °FClear.No wind74%29.89 "Hg10 mi
10:53 PM74 °FPassing clouds.3 mph69%29.89 "Hg10 mi
9:53 PM75 °FPassing clouds.5 mph66%29.89 "Hg10 mi
8:53 PM78 °FPassing clouds.5 mph52%29.88 "Hg10 mi
7:53 PM80 °FPassing clouds.5 mph51%29.87 "Hg10 mi
6:53 PM83 °FPassing clouds.5 mph46%29.87 "Hg10 mi
5:53 PM85 °FPassing clouds.7 mph36%29.88 "Hg10 mi
4:53 PM83 °FPassing clouds.9 mph36%29.89 "Hg10 mi
3:53 PM85 °FPassing clouds.8 mph36%29.90 "Hg10 mi
2:53 PM87 °FPassing clouds.10 mph35%29.91 "Hg10 mi
1:53 PM85 °FPassing clouds.8 mph37%29.94 "Hg10 mi
12:53 PM83 °FPassing clouds.10 mph44%29.96 "Hg10 mi
11:53 AM82 °FPassing clouds.10 mph46%29.97 "Hg10 mi
Weather by CustomWeather, © 2014

See weather overviewHow to use our weather pages